Weather History for LKNA - February, 2013

Change the Weather History Date:

Friday, February 1, 2013

  Actual Average Record
Temperature  
Mean Temperature 40 °F -  
Max Temperature 44 °F - - ()
Min Temperature 35 °F - - ()
Degree Days  
Heating Degree Days 26    
Moisture  
Dew Point 34 °F    
Average Humidity 83    
Maximum Humidity 100    
Minimum Humidity 61    
Precipitation  
Precipitation 0.00 in - - ()
Sea Level Pressure  
Sea Level Pressure 29.67 in    
Wind  
Wind Speed 12 mph ()    
Max Wind Speed 21 mph    
Max Gust Speed 31 mph    
Visibility 5.4 miles    
Events Rain    
T = Trace of Precipitation, MM = Missing Value Source: Averaged Metar Reports

Daily Weather History Graph

Daily Weather History Graph

Search for Another Location

Airport or City:

Trip Planner

Search our weather history database for the weather conditions in past years. The results will help you decide how hot, cold, wet, or windy it might be!

Date:

Astronomy

Feb. 01, 2013 Rise Set
Actual Time 7:26 AM CET 4:52 PM CET
Civil Twilight 6:52 AM CET 5:26 PM CET
Nautical Twilight 6:14 AM CET 6:04 PM CET
Astronomical Twilight 5:37 AM CET 6:41 PM CET
Moon 11:17 PM CET (2/1) 9:15 AM CET (2/1)
Length of Visible Light 10h 34m
Length of Day
9h 25m
Waning Gibbous, 73% of the Moon is Illuminated
Feb 1
Waning Gibbous
Feb 3
Last Quarter
Feb 10
New
Feb 17
First Quarter
Feb 25
Full

Hourly Weather History & Observations

Time (CET) Temp. Windchill Dew Point Humidity Pressure Visibility Wind Dir Wind Speed Gust Speed Precip Events Conditions
12:00 AM 41.0 °F 31.9 °F 35.6 °F 81% 29.77 in 6.2 mi West 19.6 mph - N/A   Mostly Cloudy
1:00 AM 39.2 °F 29.3 °F 33.8 °F 81% 29.80 in - West 20.7 mph 31.1 mph N/A   Clear
2:00 AM 37.4 °F 28.5 °F 33.8 °F 87% 29.80 in 6.2 mi West 15.0 mph - N/A   Mostly Cloudy
3:00 AM 37.4 °F 28.2 °F 33.8 °F 87% 29.80 in 6.2 mi West 16.1 mph 26.5 mph N/A Rain Light Rain Showers
4:00 AM 35.6 °F 28.0 °F 33.8 °F 93% 29.80 in - West 10.4 mph - N/A   Clear
5:00 AM 39.2 °F 31.6 °F 33.8 °F 81% 29.80 in 6.2 mi West 12.7 mph - N/A   Mostly Cloudy
6:00 AM 37.4 °F 27.8 °F 33.8 °F 87% 29.80 in 6.2 mi West 17.3 mph - N/A Rain Light Rain
7:00 AM 37.4 °F 30.8 °F 33.8 °F 87% 29.80 in - West 9.2 mph - N/A   Clear
8:00 AM 37.4 °F 29.8 °F 33.8 °F 87% 29.80 in - West 11.5 mph - N/A   Clear
9:00 AM 39.2 °F 30.5 °F 32.0 °F 75% 29.77 in - West 16.1 mph - N/A   Clear
10:00 AM 41.0 °F 32.2 °F 32.0 °F 70% 29.77 in - West 18.4 mph 31.1 mph N/A   Clear
11:00 AM 42.8 °F 34.8 °F 32.0 °F 66% 29.77 in 6.2 mi West 17.3 mph - N/A   Mostly Cloudy
12:00 PM 44.6 °F 37.2 °F 32.0 °F 61% 29.77 in 6.2 mi West 17.3 mph - N/A   Mostly Cloudy
2:00 PM 42.8 °F 37.5 °F 32.0 °F 66% 29.71 in 6.2 mi West 9.2 mph - N/A   Mostly Cloudy
3:00 PM 42.8 °F 39.3 °F 30.2 °F 61% 29.68 in 6.2 mi WSW 5.8 mph - N/A   Mostly Cloudy
4:00 PM 42.8 °F 41.1 °F 32.0 °F 66% 29.65 in 6.2 mi SW 3.5 mph - N/A   Overcast
5:00 PM 39.2 °F - 32.0 °F 75% 29.62 in 6.2 mi South 2.3 mph - N/A   Overcast
6:00 PM 39.2 °F 33.6 °F 35.6 °F 87% 29.56 in 6.2 mi South 8.1 mph - N/A Rain Light Rain
7:00 PM 39.2 °F 32.0 °F 35.6 °F 87% 29.53 in 6.2 mi South 11.5 mph - N/A Rain Light Rain
8:00 PM 35.6 °F 29.9 °F 35.6 °F 100% 29.47 in 6.2 mi South 6.9 mph - N/A Rain Light Rain
9:00 PM 35.6 °F 30.7 °F 35.6 °F 100% 29.44 in 3.7 mi SSE 5.8 mph - N/A Rain Light Rain
10:00 PM 35.6 °F 29.2 °F 35.6 °F 100% 29.39 in 2.5 mi SE 8.1 mph - N/A Rain Light Rain
11:00 PM 35.6 °F 30.7 °F 35.6 °F 100% 29.36 in 3.1 mi SSE 5.8 mph - N/A Rain Light Rain
11:35 PM 35.6 °F 29.9 °F 35.6 °F 100% 29.33 in 1.2 mi SE 6.9 mph - N/A   Overcast